﻿_id,日時,平均風速(m/s),平均風向,最大瞬間風速(m/s),最大風速時風向,気温(℃),湿度(%),10分間移動積算雨量(mm),1時間移動積算雨量(mm),日雨量(mm),累計雨量(mm),日射(日積算)(MJ/m2),日照(日積算)(min),現地気圧(hPa),海面気圧(hPa)
1,2022-06-27T00:00:00,3.7,南南西,6,南南西,25.2,87.3,0,0,0,0,20.3,341,1003.4,1016.8
2,2022-06-27T00:01:00,3.6,南南西,5.5,南,25.2,87.4,0,0,0,0,0,0,1003.4,1016.8
3,2022-06-27T00:02:00,3.5,南南西,5.5,南,25.2,87.4,0,0,0,0,0,0,1003.4,1016.8
4,2022-06-27T00:03:00,3.6,南南西,5.4,南南西,25.1,87.5,0,0,0,0,0,0,1003.4,1016.8
5,2022-06-27T00:04:00,3.5,南南西,5.4,南南西,25.1,87.7,0,0,0,0,0,0,1003.3,1016.7
6,2022-06-27T00:05:00,3.6,南南西,5.4,南南西,25.2,87.8,0,0,0,0,0,0,1003.3,1016.7
7,2022-06-27T00:06:00,3.5,南南西,5.2,南南西,25.1,87.8,0,0,0,0,0,0,1003.3,1016.7
8,2022-06-27T00:07:00,3.5,南南西,5.2,南南西,25.1,87.9,0,0,0,0,0,0,1003.3,1016.7
9,2022-06-27T00:08:00,3.4,南南西,5.2,南南西,25.1,88.1,0,0,0,0,0,0,1003.3,1016.7
10,2022-06-27T00:09:00,3.4,南南西,5.2,南南西,25.1,88.1,0,0,0,0,0,0,1003.3,1016.7
11,2022-06-27T00:10:00,3.3,南南西,4.8,南南西,25.1,88.1,0,0,0,0,0,0,1003.3,1016.7
12,2022-06-27T00:11:00,3.3,南南西,4.8,南南西,25.1,88.1,0,0,0,0,0,0,1003.3,1016.7
13,2022-06-27T00:12:00,3.2,南南西,4.8,南南西,25.1,88.2,0,0,0,0,0,0,1003.3,1016.7
14,2022-06-27T00:13:00,3.2,南南西,4.8,南南西,25.1,88.3,0,0,0,0,0,0,1003.3,1016.7
15,2022-06-27T00:14:00,3.1,南南西,4.8,南南西,25,88.4,0,0,0,0,0,0,1003.4,1016.8
16,2022-06-27T00:15:00,3,南南西,4.7,南,25,88.6,0,0,0,0,0,0,1003.4,1016.8
17,2022-06-27T00:16:00,3,南南西,4.7,南,25.1,88.7,0,0,0,0,0,0,1003.4,1016.8
18,2022-06-27T00:17:00,3,南,4.7,南,25.1,88.6,0,0,0,0,0,0,1003.4,1016.8
19,2022-06-27T00:18:00,3,南南西,4.7,南,25.1,88.7,0,0,0,0,0,0,1003.4,1016.8
20,2022-06-27T00:19:00,3,南南西,4.7,南,25.1,88.6,0,0,0,0,0,0,1003.4,1016.8
21,2022-06-27T00:20:00,3,南南西,4.7,南,25,88.5,0,0,0,0,0,0,1003.4,1016.8
22,2022-06-27T00:21:00,3,南南西,4.7,南,25,88.6,0,0,0,0,0,0,1003.4,1016.8
23,2022-06-27T00:22:00,3.1,南南西,5.2,南南西,25,88.7,0,0,0,0,0,0,1003.4,1016.8
24,2022-06-27T00:23:00,3.1,南南西,5.3,南南西,25,88.7,0,0,0,0,0,0,1003.4,1016.8
25,2022-06-27T00:24:00,3.2,南南西,5.3,南南西,25,88.7,0,0,0,0,0,0,1003.4,1016.8
26,2022-06-27T00:25:00,3.3,南南西,5.3,南南西,25,88.8,0,0,0,0,0,0,1003.4,1016.8
27,2022-06-27T00:26:00,3.4,南南西,5.3,南南西,25,88.8,0,0,0,0,0,0,1003.4,1016.8
28,2022-06-27T00:27:00,3.4,南南西,5.3,南南西,25,88.8,0,0,0,0,0,0,1003.4,1016.8
29,2022-06-27T00:28:00,3.4,南南西,5.3,南南西,25,88.7,0,0,0,0,0,0,1003.4,1016.8
30,2022-06-27T00:29:00,3.4,南南西,5.3,南南西,25,88.9,0,0,0,0,0,0,1003.4,1016.8
31,2022-06-27T00:30:00,3.4,南南西,5.3,南南西,25,88.9,0,0,0,0,0,0,1003.3,1016.7
32,2022-06-27T00:31:00,3.4,南南西,5.3,南南西,25,88.8,0,0,0,0,0,0,1003.4,1016.8
33,2022-06-27T00:32:00,3.3,南南西,5.3,南南西,25,88.9,0,0,0,0,0,0,1003.4,1016.8
34,2022-06-27T00:33:00,3.3,南南西,5.3,南,25,88.8,0,0,0,0,0,0,1003.4,1016.8
35,2022-06-27T00:34:00,3.3,南南西,5.3,南,25,88.7,0,0,0,0,0,0,1003.4,1016.8
36,2022-06-27T00:35:00,3.2,南南西,4.5,南南西,25,88.8,0,0,0,0,0,0,1003.5,1016.9
37,2022-06-27T00:36:00,3.1,南南西,4.4,南,25,88.9,0,0,0,0,0,0,1003.5,1016.9
38,2022-06-27T00:37:00,3,南南西,4.4,南,25,89,0,0,0,0,0,0,1003.5,1016.9
39,2022-06-27T00:38:00,2.8,南南西,4.4,南,25,88.8,0,0,0,0,0,0,1003.5,1016.9
40,2022-06-27T00:39:00,2.7,南南西,4.4,南,25,88.9,0,0,0,0,0,0,1003.6,1017
41,2022-06-27T00:40:00,2.6,南南西,4.4,南,25.1,88.9,0,0,0,0,0,0,1003.6,1017
42,2022-06-27T00:41:00,2.5,南南西,4.4,南,25.1,89,0,0,0,0,0,0,1003.6,1017
43,2022-06-27T00:42:00,2.5,南南西,4.4,南,25.1,88.7,0,0,0,0,0,0,1003.6,1017
44,2022-06-27T00:43:00,2.4,南南西,4,南,25,88.7,0,0,0,0,0,0,1003.6,1017
45,2022-06-27T00:44:00,2.4,南南西,4,南,25,88.8,0,0,0,0,0,0,1003.5,1016.9
46,2022-06-27T00:45:00,2.3,南南西,3.7,南南西,25,89,0,0,0,0,0,0,1003.5,1016.9
47,2022-06-27T00:46:00,2.3,南南西,3.8,南,25,89.1,0,0,0,0,0,0,1003.5,1016.9
48,2022-06-27T00:47:00,2.3,南南西,3.8,南,25,89.1,0,0,0,0,0,0,1003.5,1016.9
49,2022-06-27T00:48:00,2.4,南,3.8,南,25,89.2,0,0,0,0,0,0,1003.5,1016.9
50,2022-06-27T00:49:00,2.4,南,3.8,南,25,89.3,0,0,0,0,0,0,1003.5,1016.9
51,2022-06-27T00:50:00,2.5,南,3.8,南,25,89.3,0,0,0,0,0,0,1003.5,1016.9
52,2022-06-27T00:51:00,2.6,南,4.1,南南西,25,89.3,0,0,0,0,0,0,1003.5,1016.9
53,2022-06-27T00:52:00,2.5,南,4.1,南南西,25,89.4,0,0,0,0,0,0,1003.5,1016.9
54,2022-06-27T00:53:00,2.5,南,4.1,南南西,25,89.3,0,0,0,0,0,0,1003.5,1016.9
55,2022-06-27T00:54:00,2.4,南,4.1,南南西,25,89.4,0,0,0,0,0,0,1003.5,1016.9
56,2022-06-27T00:55:00,2.4,南,4.1,南南西,25,89.4,0,0,0,0,0,0,1003.5,1016.9
57,2022-06-27T00:56:00,2.3,南,4.1,南南西,25,89.5,0,0,0,0,0,0,1003.6,1017
58,2022-06-27T00:57:00,2.2,南,4.1,南南西,25,89.5,0,0,0,0,0,0,1003.6,1017
59,2022-06-27T00:58:00,2.2,南,4.1,南南西,25,89.5,0,0,0,0,0,0,1003.6,1017
60,2022-06-27T00:59:00,2.2,南,4.1,南南西,25,89.5,0,0,0,0,0,0,1003.6,1017
61,2022-06-27T01:00:00,2.1,南,4.1,南南西,25.1,89.9,0,0,0,0,0,0,1003.6,1017
62,2022-06-27T01:01:00,2,南,3.5,南南西,25.1,89.5,0,0,0,0,0,0,1003.6,1017
63,2022-06-27T01:02:00,2,南,3.5,南南西,25.1,89.1,0,0,0,0,0,0,1003.6,1017
64,2022-06-27T01:03:00,1.9,南南西,3.5,南南西,25.1,89,0,0,0,0,0,0,1003.7,1017.1
65,2022-06-27T01:04:00,1.9,南南西,3.5,南南西,25.1,89.2,0,0,0,0,0,0,1003.7,1017.1
66,2022-06-27T01:05:00,1.8,南南西,3.5,南南西,25.1,89.1,0,0,0,0,0,0,1003.7,1017.1
67,2022-06-27T01:06:00,1.8,南南西,3.4,南,25.1,89,0,0,0,0,0,0,1003.7,1017.1
68,2022-06-27T01:07:00,1.8,南南西,3.4,南,25,89.1,0,0,0,0,0,0,1003.7,1017.1
69,2022-06-27T01:08:00,1.8,南南西,3.2,南,25,89.1,0,0,0,0,0,0,1003.7,1017.1
70,2022-06-27T01:09:00,1.9,南南西,3.2,南,25,89.1,0,0,0,0,0,0,1003.7,1017.1
71,2022-06-27T01:10:00,1.9,南南西,3.2,南,25,89.4,0,0,0,0,0,0,1003.7,1017.1
72,2022-06-27T01:11:00,1.9,南南西,3.2,南,25.1,89.5,0,0,0,0,0,0,1003.7,1017.1
73,2022-06-27T01:12:00,2,南南西,3.6,南南西,25,89.3,0,0,0,0,0,0,1003.7,1017.1
74,2022-06-27T01:13:00,2.2,南南西,3.6,南南西,25,89.2,0,0,0,0,0,0,1003.7,1017.1
75,2022-06-27T01:14:00,2.3,南南西,3.8,南南西,25,89.3,0,0,0,0,0,0,1003.7,1017.1
76,2022-06-27T01:15:00,2.4,南南西,3.8,南南西,25,89.4,0,0,0,0,0,0,1003.7,1017.1
77,2022-06-27T01:16:00,2.4,南南西,3.8,南南西,25,89.6,0,0,0,0,0,0,1003.7,1017.1
78,2022-06-27T01:17:00,2.5,南南西,4.1,南,25,89.8,0,0,0,0,0,0,1003.7,1017.1
79,2022-06-27T01:18:00,2.5,南南西,4.1,南,25,89.8,0,0,0,0,0,0,1003.7,1017.1
80,2022-06-27T01:19:00,2.5,南南西,4.1,南,25,89.8,0,0,0,0,0,0,1003.7,1017.1
81,2022-06-27T01:20:00,2.5,南南西,4.1,南,25,89.9,0,0,0,0,0,0,1003.7,1017.1
82,2022-06-27T01:21:00,2.4,南南西,4.1,南,25,90,0,0,0,0,0,0,1003.7,1017.1
83,2022-06-27T01:22:00,2.4,南南西,4.1,南,25,89.7,0,0,0,0,0,0,1003.7,1017.1
84,2022-06-27T01:23:00,2.3,南南西,4.1,南,25,89.8,0,0,0,0,0,0,1003.7,1017.1
85,2022-06-27T01:24:00,2.3,南南西,4.1,南,25,89.8,0,0,0,0,0,0,1003.7,1017.1
86,2022-06-27T01:25:00,2.3,南南西,4.1,南,25,90,0,0,0,0,0,0,1003.7,1017.1
87,2022-06-27T01:26:00,2.3,南南西,4.1,南,24.9,89.9,0,0,0,0,0,0,1003.7,1017.1
88,2022-06-27T01:27:00,2.2,南南西,3.4,南,25.1,90.1,0,0,0,0,0,0,1003.7,1017.1
89,2022-06-27T01:28:00,2.2,南南西,3.4,南,25,90.1,0,0,0,0,0,0,1003.7,1017.1
90,2022-06-27T01:29:00,2.2,南南西,3.5,南南西,25,89.8,0,0,0,0,0,0,1003.7,1017.1
91,2022-06-27T01:30:00,2.3,南南西,3.8,南南西,24.9,89.7,0,0,0,0,0,0,1003.7,1017.1
92,2022-06-27T01:31:00,2.3,南南西,3.8,南南西,25,89.9,0,0,0,0,0,0,1003.7,1017.1
93,2022-06-27T01:32:00,2.3,南南西,3.8,南南西,25,90.1,0,0,0,0,0,0,1003.7,1017.1
94,2022-06-27T01:33:00,2.3,南南西,3.8,南南西,24.9,90,0,0,0,0,0,0,1003.7,1017.1
95,2022-06-27T01:34:00,2.3,南南西,3.8,南南西,24.9,90.1,0,0,0,0,0,0,1003.7,1017.1
96,2022-06-27T01:35:00,2.4,南南西,3.8,南南西,24.9,90.2,0,0,0,0,0,0,1003.7,1017.1
97,2022-06-27T01:36:00,2.4,南南西,3.8,南南西,25,90.4,0,0,0,0,0,0,1003.8,1017.2
98,2022-06-27T01:37:00,2.4,南南西,3.8,南南西,25,90.6,0,0,0,0,0,0,1003.8,1017.2
99,2022-06-27T01:38:00,2.3,南南西,3.8,南南西,25,90.5,0,0,0,0,0,0,1003.8,1017.2
100,2022-06-27T01:39:00,2.2,南南西,3.8,南南西,25,90.2,0,0,0,0,0,0,1003.8,1017.2
101,2022-06-27T01:40:00,2.1,南南西,3.6,南,25,90.3,0,0,0,0,0,0,1003.8,1017.2
102,2022-06-27T01:41:00,2.1,南南西,3.6,南,25,90.3,0,0,0,0,0,0,1003.8,1017.2
103,2022-06-27T01:42:00,2.1,南南西,3.6,南,25,90.2,0,0,0,0,0,0,1003.8,1017.2
104,2022-06-27T01:43:00,2.1,南南西,3.6,南,24.9,90.1,0,0,0,0,0,0,1003.8,1017.2
105,2022-06-27T01:44:00,2,南南西,3.6,南,25,90.1,0,0,0,0,0,0,1003.8,1017.2
106,2022-06-27T01:45:00,2,南南西,3.4,南南西,25,90.2,0,0,0,0,0,0,1003.8,1017.2
107,2022-06-27T01:46:00,2.1,南南西,3.7,南南西,25,90.2,0,0,0,0,0,0,1003.8,1017.2
108,2022-06-27T01:47:00,2.2,南南西,3.7,南南西,25,90.2,0,0,0,0,0,0,1003.8,1017.2
109,2022-06-27T01:48:00,2.3,南南西,3.7,南南西,25,90.2,0,0,0,0,0,0,1003.8,1017.2
110,2022-06-27T01:49:00,2.4,南南西,3.7,南南西,25,90.2,0,0,0,0,0,0,1003.8,1017.2
111,2022-06-27T01:50:00,2.5,南南西,3.7,南南西,24.9,90.1,0,0,0,0,0,0,1003.8,1017.2
112,2022-06-27T01:51:00,2.6,南南西,3.8,南,25,90.1,0,0,0,0,0,0,1003.8,1017.2
113,2022-06-27T01:52:00,2.8,南南西,3.9,南南西,25,90.2,0,0,0,0,0,0,1003.8,1017.2
114,2022-06-27T01:53:00,2.8,南南西,3.9,南南西,25,90.1,0,0,0,0,0,0,1003.8,1017.2
115,2022-06-27T01:54:00,2.9,南南西,3.9,南南西,25,90.2,0,0,0,0,0,0,1003.8,1017.2
116,2022-06-27T01:55:00,2.8,南南西,3.9,南南西,25,90.1,0,0,0,0,0,0,1003.8,1017.2
117,2022-06-27T01:56:00,2.9,南南西,3.9,南南西,25,90,0,0,0,0,0,0,1003.8,1017.2
118,2022-06-27T01:57:00,2.9,南南西,3.9,南南西,25,90.1,0,0,0,0,0,0,1003.8,1017.2
119,2022-06-27T01:58:00,2.8,南南西,3.9,南南西,25,90.3,0,0,0,0,0,0,1003.8,1017.2
120,2022-06-27T01:59:00,2.7,南南西,3.9,南南西,25,90.1,0,0,0,0,0,0,1003.9,1017.3
121,2022-06-27T02:00:00,2.7,南南西,3.9,南南西,25,90,0,0,0,0,0,0,1003.9,1017.3
122,2022-06-27T02:01:00,2.6,南南西,3.9,南南西,25,90,0,0,0,0,0,0,1003.9,1017.3
123,2022-06-27T02:02:00,2.5,南南西,3.8,南南西,25,90,0,0,0,0,0,0,1003.9,1017.3
124,2022-06-27T02:03:00,2.3,南南西,3.8,南南西,25.1,90.1,0,0,0,0,0,0,1003.9,1017.3
125,2022-06-27T02:04:00,2.2,南南西,3.8,南南西,25,89.9,0,0,0,0,0,0,1003.9,1017.3
126,2022-06-27T02:05:00,2.2,南南西,3.8,南南西,25,89.9,0,0,0,0,0,0,1003.9,1017.3
127,2022-06-27T02:06:00,2,南南西,3.3,南南西,25.1,89.9,0,0,0,0,0,0,1003.9,1017.3
128,2022-06-27T02:07:00,2,南南西,3.5,南南西,25.1,89.9,0,0,0,0,0,0,1003.9,1017.3
129,2022-06-27T02:08:00,2,南南西,3.5,南南西,25.1,89.7,0,0,0,0,0,0,1003.9,1017.3
130,2022-06-27T02:09:00,2.1,南南西,3.6,南南西,25.1,89.8,0,0,0,0,0,0,1003.8,1017.2
131,2022-06-27T02:10:00,2.1,南南西,3.6,南南西,25.1,89.7,0,0,0,0,0,0,1003.8,1017.2
132,2022-06-27T02:11:00,2.1,南南西,3.6,南南西,25.1,89.7,0,0,0,0,0,0,1003.8,1017.2
133,2022-06-27T02:12:00,2.3,南南西,3.8,南,25.1,89.6,0,0,0,0,0,0,1003.7,1017.1
134,2022-06-27T02:13:00,2.5,南南西,4.1,南,25,89.6,0,0,0,0,0,0,1003.7,1017.1
135,2022-06-27T02:14:00,2.6,南南西,4.3,南,25,89.7,0,0,0,0,0,0,1003.7,1017.1
136,2022-06-27T02:15:00,2.8,南南西,4.3,南,25,89.8,0,0,0,0,0,0,1003.8,1017.2
137,2022-06-27T02:16:00,2.9,南南西,4.3,南,25,89.9,0,0,0,0,0,0,1003.8,1017.2
138,2022-06-27T02:17:00,3.1,南南西,4.6,南南西,25,90,0,0,0,0,0,0,1003.8,1017.2
139,2022-06-27T02:18:00,3.2,南南西,4.6,南南西,25,89.9,0,0,0,0,0,0,1003.8,1017.2
140,2022-06-27T02:19:00,3.3,南南西,4.6,南南西,25,90,0,0,0,0,0,0,1003.8,1017.2
141,2022-06-27T02:20:00,3.3,南南西,4.6,南南西,25,90.1,0,0,0,0,0,0,1003.8,1017.2
142,2022-06-27T02:21:00,3.3,南南西,4.6,南南西,25,90.2,0,0,0,0,0,0,1003.8,1017.2
143,2022-06-27T02:22:00,3.4,南南西,4.6,南南西,25,90.2,0,0,0,0,0,0,1003.9,1017.3
144,2022-06-27T02:23:00,3.4,南南西,4.6,南南西,25,90.3,0,0,0,0,0,0,1003.9,1017.3
145,2022-06-27T02:24:00,3.4,南南西,4.6,南南西,24.9,90.3,0,0,0,0,0,0,1003.9,1017.3
146,2022-06-27T02:25:00,3.4,南南西,4.6,南南西,24.9,90.4,0,0,0,0,0,0,1003.9,1017.3
147,2022-06-27T02:26:00,3.4,南南西,4.6,南南西,24.9,90.4,0,0,0,0,0,0,1003.9,1017.3
148,2022-06-27T02:27:00,3.2,南南西,4.4,南南西,24.9,90.7,0,0,0,0,0,0,1003.9,1017.3
149,2022-06-27T02:28:00,3.1,南南西,4.4,南南西,24.9,90.9,0,0,0,0,0,0,1003.9,1017.3
150,2022-06-27T02:29:00,3,南南西,4.4,南南西,24.9,91,0,0,0,0,0,0,1003.9,1017.3
151,2022-06-27T02:30:00,3,南南西,4.4,南南西,24.8,90.9,0,0,0,0,0,0,1003.9,1017.3
152,2022-06-27T02:31:00,3,南南西,4.4,南南西,24.9,91,0,0,0,0,0,0,1003.9,1017.3
153,2022-06-27T02:32:00,2.9,南南西,4.4,南南西,24.9,91.1,0,0,0,0,0,0,1003.9,1017.3
154,2022-06-27T02:33:00,2.9,南南西,4.4,南南西,24.9,91.2,0,0,0,0,0,0,1003.9,1017.3
155,2022-06-27T02:34:00,2.9,南南西,4.4,南南西,24.9,91.2,0,0,0,0,0,0,1003.8,1017.2
156,2022-06-27T02:35:00,2.9,南南西,4.4,南南西,24.9,91.1,0,0,0,0,0,0,1003.8,1017.2
157,2022-06-27T02:36:00,2.9,南南西,4.8,南南西,24.9,91.1,0,0,0,0,0,0,1003.8,1017.2
158,2022-06-27T02:37:00,3,南南西,4.8,南南西,24.9,91.2,0,0,0,0,0,0,1003.8,1017.2
159,2022-06-27T02:38:00,3.2,南南西,4.8,南南西,24.9,91.1,0,0,0,0,0,0,1003.8,1017.2
160,2022-06-27T02:39:00,3.3,南南西,4.8,南南西,24.9,91.1,0,0,0,0,0,0,1003.8,1017.2
161,2022-06-27T02:40:00,3.4,南南西,4.8,南南西,24.9,91.1,0,0,0,0,0,0,1003.8,1017.2
162,2022-06-27T02:41:00,3.4,南南西,4.8,南南西,24.9,91.1,0,0,0,0,0,0,1003.8,1017.2
163,2022-06-27T02:42:00,3.4,南南西,4.8,南南西,24.9,91.1,0,0,0,0,0,0,1003.8,1017.2
164,2022-06-27T02:43:00,3.3,南南西,4.8,南南西,24.9,91.1,0,0,0,0,0,0,1003.8,1017.2
165,2022-06-27T02:44:00,3.2,南南西,4.8,南南西,24.9,91.2,0,0,0,0,0,0,1003.8,1017.2
166,2022-06-27T02:45:00,3.1,南南西,4.8,南南西,24.9,91.2,0,0,0,0,0,0,1003.8,1017.2
167,2022-06-27T02:46:00,3.1,南南西,4.6,南,24.8,91.1,0,0,0,0,0,0,1003.8,1017.2
168,2022-06-27T02:47:00,3,南南西,4.6,南,24.8,91.2,0,0,0,0,0,0,1003.8,1017.2
169,2022-06-27T02:48:00,3,南南西,4.6,南,24.8,91.3,0,0,0,0,0,0,1003.8,1017.2
170,2022-06-27T02:49:00,2.9,南南西,4.4,南南西,24.8,91.5,0,0,0,0,0,0,1003.8,1017.2
171,2022-06-27T02:50:00,2.8,南,4.3,南,24.8,91.6,0,0,0,0,0,0,1003.8,1017.2
172,2022-06-27T02:51:00,2.8,南,4.1,南,24.8,91.5,0,0,0,0,0,0,1003.8,1017.2
173,2022-06-27T02:52:00,2.7,南,4.1,南,24.8,91.7,0,0,0,0,0,0,1003.8,1017.2
174,2022-06-27T02:53:00,2.7,南,4.1,南,24.9,91.8,0,0,0,0,0,0,1003.8,1017.2
175,2022-06-27T02:54:00,2.8,南,4.5,南,24.8,91.7,0,0,0,0,0,0,1003.8,1017.2
176,2022-06-27T02:55:00,2.8,南,4.6,南,24.9,91.7,0,0,0,0,0,0,1003.8,1017.2
177,2022-06-27T02:56:00,2.9,南,4.6,南,24.8,91.6,0,0,0,0,0,0,1003.8,1017.2
178,2022-06-27T02:57:00,2.8,南,4.6,南,24.8,91.7,0,0,0,0,0,0,1003.8,1017.2
179,2022-06-27T02:58:00,2.8,南,4.6,南,24.8,91.6,0,0,0,0,0,0,1003.8,1017.2
180,2022-06-27T02:59:00,2.9,南,4.6,南,24.8,91.6,0,0,0,0,0,0,1003.7,1017.1
181,2022-06-27T03:00:00,2.8,南,4.6,南,24.8,91.7,0,0,0,0,0,0,1003.7,1017.1
182,2022-06-27T03:01:00,2.9,南,4.6,南,24.8,91.8,0,0,0,0,0,0,1003.7,1017.1
183,2022-06-27T03:02:00,3,南,5.1,南,24.8,91.9,0,0,0,0,0,0,1003.7,1017.1
184,2022-06-27T03:03:00,3.1,南,5.1,南,24.8,91.9,0,0,0,0,0,0,1003.7,1017.1
185,2022-06-27T03:04:00,3.1,南,5.1,南,24.8,92.1,0,0,0,0,0,0,1003.6,1017
186,2022-06-27T03:05:00,3.1,南南西,5.1,南,24.8,92,0,0,0,0,0,0,1003.6,1017
187,2022-06-27T03:06:00,3.1,南南西,5.1,南,24.8,91.9,0,0,0,0,0,0,1003.6,1017
188,2022-06-27T03:07:00,3.1,南南西,5.1,南,24.8,91.9,0,0,0,0,0,0,1003.6,1017
189,2022-06-27T03:08:00,3,南南西,5.1,南,24.8,92,0,0,0,0,0,0,1003.5,1016.9
190,2022-06-27T03:09:00,2.9,南南西,5.1,南,24.8,91.9,0,0,0,0,0,0,1003.5,1016.9
191,2022-06-27T03:10:00,2.9,南南西,5.1,南,24.8,91.9,0,0,0,0,0,0,1003.5,1016.9
192,2022-06-27T03:11:00,2.7,南南西,5.1,南,24.8,92,0,0,0,0,0,0,1003.5,1016.9
193,2022-06-27T03:12:00,2.7,南南西,4.7,南南西,24.8,92,0,0,0,0,0,0,1003.6,1017
194,2022-06-27T03:13:00,2.7,南南西,4.7,南南西,24.8,92,0,0,0,0,0,0,1003.6,1017
195,2022-06-27T03:14:00,2.7,南南西,4.7,南南西,24.8,92.1,0,0,0,0,0,0,1003.6,1017
196,2022-06-27T03:15:00,2.6,南南西,4.5,南南西,24.8,92.1,0,0,0,0,0,0,1003.6,1017
197,2022-06-27T03:16:00,2.7,南南西,4.5,南南西,24.8,92.1,0,0,0,0,0,0,1003.5,1016.9
198,2022-06-27T03:17:00,2.6,南南西,4.5,南南西,24.8,92,0,0,0,0,0,0,1003.5,1016.9
199,2022-06-27T03:18:00,2.8,南南西,4.5,南南西,24.8,92,0,0,0,0,0,0,1003.5,1016.9
200,2022-06-27T03:19:00,2.8,南南西,4.5,南南西,24.8,92.1,0,0,0,0,0,0,1003.5,1016.9
201,2022-06-27T03:20:00,2.7,南南西,4.5,南南西,24.8,92,0,0,0,0,0,0,1003.5,1016.9
202,2022-06-27T03:21:00,2.8,南南西,4.5,南南西,24.8,92.1,0,0,0,0,0,0,1003.5,1016.9
203,2022-06-27T03:22:00,2.7,南南西,4.5,南南西,24.8,92.2,0,0,0,0,0,0,1003.5,1016.9
204,2022-06-27T03:23:00,2.5,南南西,4.2,南,24.9,92.3,0,0,0,0,0,0,1003.5,1016.9
205,2022-06-27T03:24:00,2.4,南南西,4,南南西,24.8,92.2,0,0,0,0,0,0,1003.5,1016.9
206,2022-06-27T03:25:00,2.4,南南西,4,南南西,24.8,92.1,0,0,0,0,0,0,1003.5,1016.9
207,2022-06-27T03:26:00,2.3,南南西,4,南南西,24.8,92.1,0,0,0,0,0,0,1003.5,1016.9
208,2022-06-27T03:27:00,2.3,南南西,4,南南西,24.8,92.2,0,0,0,0,0,0,1003.5,1016.9
209,2022-06-27T03:28:00,2.2,南南西,3.4,南南西,24.8,92.2,0,0,0,0,0,0,1003.5,1016.9
210,2022-06-27T03:29:00,2.1,南南西,3.4,南南西,24.8,92.2,0,0,0,0,0,0,1003.5,1016.9
211,2022-06-27T03:30:00,2,南南西,3.4,南南西,24.8,92.2,0,0,0,0,0,0,1003.4,1016.8
212,2022-06-27T03:31:00,1.9,南南西,3.4,南南西,24.8,92.3,0,0,0,0,0,0,1003.4,1016.8
213,2022-06-27T03:32:00,1.8,南南西,3.3,南,24.8,92.3,0,0,0,0,0,0,1003.5,1016.9
214,2022-06-27T03:33:00,1.8,南南西,3.3,南,24.8,92.3,0,0,0,0,0,0,1003.5,1016.9
215,2022-06-27T03:34:00,1.8,南南西,3.3,南,24.9,92.3,0,0,0,0,0,0,1003.5,1016.9
216,2022-06-27T03:35:00,1.8,南南西,2.8,南南西,24.9,92.3,0,0,0,0,0,0,1003.5,1016.9
217,2022-06-27T03:36:00,1.7,南南西,2.8,南南西,24.9,92.2,0,0,0,0,0,0,1003.5,1016.9
218,2022-06-27T03:37:00,1.6,南,2.8,南南西,24.9,92.2,0,0,0,0,0,0,1003.5,1016.9
219,2022-06-27T03:38:00,1.6,南,2.8,南南西,24.9,92.1,0,0,0,0,0,0,1003.5,1016.9
220,2022-06-27T03:39:00,1.6,南,2.8,南南西,24.9,92,0,0,0,0,0,0,1003.5,1016.9
221,2022-06-27T03:40:00,1.6,南,2.8,南南西,24.9,92,0,0,0,0,0,0,1003.5,1016.9
222,2022-06-27T03:41:00,1.5,南,2.8,南南西,24.9,92.1,0,0,0,0,0,0,1003.4,1016.8
223,2022-06-27T03:42:00,1.5,南,2.7,南南西,24.9,92,0,0,0,0,0,0,1003.5,1016.9
224,2022-06-27T03:43:00,1.5,南,2.7,南南西,24.9,92.1,0,0,0,0,0,0,1003.5,1016.9
225,2022-06-27T03:44:00,1.5,南,2.7,南南西,24.9,92,0,0,0,0,0,0,1003.5,1016.9
226,2022-06-27T03:45:00,1.5,南,2.7,南南西,24.9,92,0,0,0,0,0,0,1003.5,1016.9
227,2022-06-27T03:46:00,1.5,南,2.7,南南西,24.9,92,0,0,0,0,0,0,1003.5,1016.9
228,2022-06-27T03:47:00,1.4,南,2.7,南南西,25,92.1,0,0,0,0,0,0,1003.5,1016.9
229,2022-06-27T03:48:00,1.3,南,2.7,南南西,25,92.1,0,0,0,0,0,0,1003.5,1016.9
230,2022-06-27T03:49:00,1.3,南,2.7,南南西,25,91.8,0,0,0,0,0,0,1003.5,1016.9
231,2022-06-27T03:50:00,1.4,南,2.7,南南西,25,91.6,0,0,0,0,0,0,1003.4,1016.8
232,2022-06-27T03:51:00,1.3,南,2.7,南南西,24.9,91.7,0,0,0,0,0,0,1003.4,1016.8
233,2022-06-27T03:52:00,1.3,南,2.7,南南西,24.9,91.6,0,0,0,0,0,0,1003.4,1016.8
234,2022-06-27T03:53:00,1.3,南,2.6,南,24.9,91.7,0,0,0,0,0,0,1003.4,1016.8
235,2022-06-27T03:54:00,1.1,南,2.6,南,24.8,91.8,0,0,0,0,0,0,1003.4,1016.8
236,2022-06-27T03:55:00,1.1,南,2.6,南,24.8,92,0,0,0,0,0,0,1003.4,1016.8
237,2022-06-27T03:56:00,1,南,2.6,南,24.8,92.1,0,0,0,0,0,0,1003.4,1016.8
238,2022-06-27T03:57:00,1,南,2.6,南,24.8,92.3,0,0,0,0,0,0,1003.4,1016.8
239,2022-06-27T03:58:00,1,南,2.6,南,24.8,92.5,0,0,0,0,0,0,1003.4,1016.8
240,2022-06-27T03:59:00,1,南南東,2.6,南,24.8,92.7,0,0,0,0,0,0,1003.4,1016.8
241,2022-06-27T04:00:00,1,南南東,2.7,南,24.8,92.7,0,0,0,0,0,0,1003.4,1016.8
242,2022-06-27T04:01:00,1.1,南,3.3,南南東,24.8,92.8,0,0,0,0,0,0,1003.4,1016.8
243,2022-06-27T04:02:00,1.2,南,3.3,南南東,24.8,92.7,0,0,0,0,0,0,1003.4,1016.8
244,2022-06-27T04:03:00,1.2,南,3.3,南南東,24.8,92.8,0,0,0,0,0,0,1003.4,1016.8
245,2022-06-27T04:04:00,1.3,南,3.3,南南東,24.8,92.7,0,0,0,0,0,0,1003.5,1016.9
246,2022-06-27T04:05:00,1.4,南,3.3,南南東,24.8,92.7,0,0,0,0,0,0,1003.5,1016.9
247,2022-06-27T04:06:00,1.4,南,3.3,南南東,24.8,92.8,0,0,0,0,0,0,1003.5,1016.9
248,2022-06-27T04:07:00,1.5,南,3.3,南南東,24.8,92.8,0,0,0,0,0,0,1003.5,1016.9
249,2022-06-27T04:08:00,1.5,南,3.3,南南東,24.8,92.7,0,0,0,0,0,0,1003.5,1016.9
250,2022-06-27T04:09:00,1.7,南,3.3,南南東,24.8,92.7,0,0,0,0,0,0,1003.5,1016.9
251,2022-06-27T04:10:00,1.7,南,3.3,南南東,24.8,92.8,0,0,0,0,0,0,1003.4,1016.8
252,2022-06-27T04:11:00,1.6,南,3.1,南,24.8,92.8,0,0,0,0,0,0,1003.4,1016.8
253,2022-06-27T04:12:00,1.6,南,3.1,南,24.8,92.8,0,0,0,0,0,0,1003.4,1016.8
254,2022-06-27T04:13:00,1.6,南,3.1,南,24.8,92.9,0,0,0,0,0,0,1003.5,1016.9
255,2022-06-27T04:14:00,1.6,南,3.1,南,24.8,92.9,0,0,0,0,0,0,1003.4,1016.8
256,2022-06-27T04:15:00,1.6,南,3.1,南,24.8,93.1,0,0,0,0,0,0,1003.5,1016.9
257,2022-06-27T04:16:00,1.5,南,3.1,南,24.8,93,0,0,0,0,0,0,1003.5,1016.9
258,2022-06-27T04:17:00,1.5,南,3.1,南,24.8,93.1,0,0,0,0,0,0,1003.5,1016.9
259,2022-06-27T04:18:00,1.6,南,3.1,南,24.7,93.1,0,0,0,0,0,0,1003.5,1016.9
260,2022-06-27T04:19:00,1.5,南,3.1,南,24.7,93.1,0,0,0,0,0,0,1003.5,1016.9
261,2022-06-27T04:20:00,1.6,南,3.4,南,24.7,93.2,0,0,0,0,0,0,1003.5,1016.9
262,2022-06-27T04:21:00,1.8,南,3.4,南,24.7,93.3,0,0,0,0,0,0,1003.5,1016.9
263,2022-06-27T04:22:00,1.9,南,3.4,南,24.7,93.3,0,0,0,0,0,0,1003.5,1016.9
264,2022-06-27T04:23:00,1.9,南,3.9,南西,24.7,93.3,0,0,0,0,0,0,1003.5,1016.9
265,2022-06-27T04:24:00,2.1,南南西,3.9,南西,24.7,93.3,0,0,0,0,0,0,1003.5,1016.9
266,2022-06-27T04:25:00,2.2,南南西,3.9,南西,24.7,93.2,0,0,0,0,0,0,1003.5,1016.9
267,2022-06-27T04:26:00,2.3,南南西,3.9,南西,24.7,93.3,0,0,0,0,0,0,1003.5,1016.9
268,2022-06-27T04:27:00,2.4,南南西,3.9,南西,24.8,93.3,0,0,0,0,0,0,1003.5,1016.9
269,2022-06-27T04:28:00,2.5,南南西,3.9,南西,24.7,93.2,0,0,0,0,0,0,1003.6,1017
270,2022-06-27T04:29:00,2.5,南南西,3.9,南西,24.7,93.1,0,0,0,0,0,0,1003.6,1017
271,2022-06-27T04:30:00,2.5,南南西,3.9,南西,24.8,93.1,0,0,0,0,0,0,1003.6,1017
272,2022-06-27T04:31:00,2.5,南南西,3.9,南西,24.8,93.1,0,0,0,0,0,0,1003.6,1017
273,2022-06-27T04:32:00,2.5,南南西,3.9,南西,24.8,93,0,0,0,0,0,0,1003.5,1016.9
274,2022-06-27T04:33:00,2.4,南南西,3.7,南南西,24.8,92.9,0,0,0,0,0,0,1003.6,1017
275,2022-06-27T04:34:00,2.4,南南西,4,南,24.8,92.8,0,0,0,0,0,0,1003.6,1017
276,2022-06-27T04:35:00,2.5,南南西,4,南,24.8,92.7,0,0,0,0,0,0,1003.6,1017
277,2022-06-27T04:36:00,2.6,南南西,4,南,24.8,92.6,0,0,0,0,0,0,1003.6,1017
278,2022-06-27T04:37:00,2.6,南南西,4,南,24.8,92.6,0,0,0,0,0,0,1003.6,1017
279,2022-06-27T04:38:00,2.5,南南西,4,南,24.8,92.6,0,0,0,0,0,0,1003.6,1017
280,2022-06-27T04:39:00,2.6,南南西,4,南,24.8,92.4,0,0,0,0,0,0,1003.5,1016.9
281,2022-06-27T04:40:00,2.6,南南西,4,南,24.8,92.5,0,0,0,0,0,0,1003.6,1017
282,2022-06-27T04:41:00,2.7,南南西,4.3,南,24.8,92.5,0,0,0,0,0,0,1003.5,1016.9
283,2022-06-27T04:42:00,2.7,南南西,4.3,南,24.8,92.5,0,0,0,0,0,0,1003.6,1017
284,2022-06-27T04:43:00,2.8,南南西,4.3,南,24.8,92.5,0,0,0,0,0,0,1003.6,1017
285,2022-06-27T04:44:00,2.8,南南西,4.3,南,24.8,92.6,0,0,0,0,0,0,1003.6,1017
286,2022-06-27T04:45:00,2.8,南南西,4.3,南,24.8,92.7,0,0,0,0,0,0,1003.6,1017
287,2022-06-27T04:46:00,2.9,南南西,4.5,南南西,24.8,92.8,0,0,0,0,0,0,1003.6,1017
288,2022-06-27T04:47:00,2.9,南南西,4.5,南南西,24.8,92.7,0,0,0,0,0,0,1003.6,1017
289,2022-06-27T04:48:00,2.9,南南西,4.5,南南西,24.8,92.7,0,0,0,0,0,0,1003.6,1017
290,2022-06-27T04:49:00,2.8,南南西,4.5,南南西,24.8,92.7,0,0,0,0,0,0,1003.6,1017
291,2022-06-27T04:50:00,2.9,南南西,4.5,南南西,24.8,92.7,0,0,0,0,0,0,1003.6,1017
292,2022-06-27T04:51:00,2.8,南南西,4.5,南南西,24.8,92.8,0,0,0,0,0,0,1003.6,1017
293,2022-06-27T04:52:00,2.8,南南西,4.5,南南西,24.8,92.8,0,0,0,0,0,0,1003.6,1017
294,2022-06-27T04:53:00,2.8,南南西,4.5,南南西,24.8,92.8,0,0,0,0,0,0,1003.6,1017
295,2022-06-27T04:54:00,2.8,南南西,4.5,南南西,24.8,92.9,0,0,0,0,0,0,1003.6,1017
296,2022-06-27T04:55:00,2.8,南南西,4.5,南南西,24.8,93,0,0,0,0,0,0,1003.6,1017
297,2022-06-27T04:56:00,2.7,南南西,4.4,南,24.8,93.1,0,0,0,0,0,0,1003.6,1017
298,2022-06-27T04:57:00,2.8,南南西,4.4,南,24.8,92.9,0,0,0,0,0,0,1003.5,1016.9
299,2022-06-27T04:58:00,2.8,南南西,4.4,南,24.8,92.9,0,0,0,0,0,0,1003.5,1016.9
300,2022-06-27T04:59:00,2.8,南,4.4,南,24.8,93.1,0,0,0,0,0,0,1003.5,1016.9
301,2022-06-27T05:00:00,2.7,南,4.4,南,24.8,93.1,0,0,0,0,0,0,1003.4,1016.8
302,2022-06-27T05:01:00,2.7,南,4.4,南,24.8,93.1,0,0,0,0,0,0,1003.4,1016.8
303,2022-06-27T05:02:00,2.7,南,5.2,南南西,24.8,93.2,0,0,0,0,0,0,1003.4,1016.8
304,2022-06-27T05:03:00,2.7,南,5.2,南南西,24.8,93.2,0,0,0,0,0,0,1003.4,1016.8
305,2022-06-27T05:04:00,2.7,南,5.2,南南西,24.8,93.2,0,0,0,0,0,0,1003.4,1016.8
306,2022-06-27T05:05:00,2.8,南,5.2,南南西,24.8,93.1,0,0,0,0,0,0,1003.5,1016.9
307,2022-06-27T05:06:00,2.8,南,5.2,南南西,24.8,93,0,0,0,0,0,0,1003.5,1016.9
308,2022-06-27T05:07:00,2.9,南,5.2,南南西,24.8,92.9,0,0,0,0,0,0,1003.5,1016.9
309,2022-06-27T05:08:00,2.9,南,5.2,南南西,24.8,93,0,0,0,0,0,0,1003.6,1017
310,2022-06-27T05:09:00,3,南,5.2,南南西,24.8,93,0,0,0,0,0.01,0,1003.6,1017
311,2022-06-27T05:10:00,3.1,南,5.2,南南西,24.8,93,0,0,0,0,0.01,0,1003.6,1017
312,2022-06-27T05:11:00,3.2,南,5.3,南南西,24.8,93,0,0,0,0,0.01,0,1003.7,1017.1
313,2022-06-27T05:12:00,3.4,南南西,5.9,南南西,24.8,92.9,0,0,0,0,0.01,0,1003.7,1017.1
314,2022-06-27T05:13:00,3.6,南南西,5.9,南南西,24.8,93,0,0,0,0,0.01,0,1003.7,1017.1
315,2022-06-27T05:14:00,3.6,南南西,5.9,南南西,24.8,93,0,0,0,0,0.01,0,1003.7,1017.1
316,2022-06-27T05:15:00,3.6,南南西,5.9,南南西,24.8,93.1,0,0,0,0,0.01,0,1003.7,1017.1
317,2022-06-27T05:16:00,3.5,南南西,5.9,南南西,24.9,93.2,0,0,0,0,0.01,0,1003.7,1017.1
318,2022-06-27T05:17:00,3.6,南南西,5.9,南南西,24.8,93,0,0,0,0,0.01,0,1003.7,1017.1
319,2022-06-27T05:18:00,3.6,南南西,5.9,南南西,24.9,93,0,0,0,0,0.02,0,1003.7,1017.1
320,2022-06-27T05:19:00,3.7,南南西,5.9,南南西,24.8,92.9,0,0,0,0,0.02,0,1003.7,1017.1
321,2022-06-27T05:20:00,3.7,南南西,5.9,南南西,24.9,93,0,0,0,0,0.02,0,1003.8,1017.2
322,2022-06-27T05:21:00,3.6,南南西,5.9,南南西,24.9,92.9,0,0,0,0,0.02,0,1003.8,1017.2
323,2022-06-27T05:22:00,3.5,南南西,5.5,南南西,24.9,92.9,0,0,0,0,0.02,0,1003.8,1017.2
324,2022-06-27T05:23:00,3.3,南南西,5,南南西,24.9,92.8,0,0,0,0,0.03,0,1003.8,1017.2
325,2022-06-27T05:24:00,3.3,南南西,5,南南西,24.9,92.8,0,0,0,0,0.03,0,1003.8,1017.2
326,2022-06-27T05:25:00,3.3,南南西,5,南南西,24.9,92.7,0,0,0,0,0.03,0,1003.8,1017.2